Regional Weather Roundup
Issued by NWS

Home | Current Version | Previous Version | Graphics & Text | Print | Product List | Glossary On
Versions: 1 2 3 4 5 6 7 8 9 10 11 12 13 14 15 16 17 18 19 20 21 22 23 24 25 26 27 28 29 30 31 32 33 34 35 36 37 38 39 40 41 42 43 44 45 46 47 48 49 50
000
ASUS43 KDTX 140201
RWRMI
MICHIGAN HOURLY REGIONAL WEATHER ROUNDUP
NATIONAL WEATHER SERVICE DETROIT/PONTIAC MI
900 PM EST SAT FEB 13 2016

NOTE: "FAIR" INDICATES FEW OR NO CLOUDS BELOW 12,000 FEET WITH NO
SIGNIFICANT WEATHER AND/OR OBSTRUCTION TO VISIBILITY.

MIZ047>049-052>055-059>063-066>070-074>076-081>083-140300-
SOUTHEAST LOWER MICHIGAN

CITY           SKY/WX    TMP DP  RH WIND       PRES   REMARKS
ADRIAN         CLOUDY    13   2  61 N6        30.46S WCI   4
ALMA           CLEAR     11   2  66 NW6       30.46S WCI   1
ANN ARBOR      CLEAR      7   1  76 NW5       30.45S WCI  -2
BAD AXE        CLEAR     -4  -8  81 CALM      30.44S
CARO           PTCLDY    -8 -13  77 CALM      30.45S
DETROIT CITY   PTCLDY     9  -2  61 CALM      30.47S
DETROIT        PTCLDY    10   5  80 NW3       30.48R
FLINT          CLEAR      6  -1  73 CALM      30.45S
GROSSE ILE     PTCLDY    10   3  72 CALM      30.46S
HILLSDALE      CLOUDY    12   2  66 NW10      30.42S WCI  -2
HOWELL         MOCLDY     5   3  88 CALM      30.43S

CITY           SKY/WX    TMP DP  RH WIND       PRES   REMARKS
JACKSON        CLOUDY    11   4  73 NW3       30.43S
LAMBERTVILLE   CLOUDY    14   6  69 CALM      30.47S
LANSING        PTCLDY     9  -1  64 NW5       30.45S WCI   1
LAPEER         FAIR      -6  -9  84 CALM      30.44S
MASON          CLEAR      9  -1  64 W5        30.44S WCI   1
MONROE         CLOUDY    14   4  64 N5        30.46S WCI   6
MT. CLEMENS    CLEAR      6  -5  61 W1        30.45S
PONTIAC        PTCLDY     5   0  79 CALM      30.42S
PORT HOPE        N/A     11  -2  56 NW18G25   30.42F WCI  -7
PORT HURON     PTCLDY    -4  -8  84 CALM      30.46F
TRI CITIES     CLOUDY     9   1  70 SW6       30.46S WCI  -1
MIDLAND        CLOUDY     3  -4  72 CALM      30.45S
TROY           CLEAR     10   0  62 CALM      30.47S
SAGINAW HB     MOCLDY     3   0  85 SW5       30.46S WCI  -6
$$
MIZ043>046-050>051-056>058-064>065-071>073-077>080-140300-
SOUTHWEST LOWER MICHIGAN

CITY           SKY/WX    TMP DP  RH WIND       PRES   REMARKS
BATTLE CREEK   CLOUDY    12   5  73 NW6       30.45S WCI   3
BENTON HARBOR  CLOUDY    16   4  59 CALM      30.49S
BIG RAPIDS     CLEAR      8   1  73 W5        30.42F WCI  -1
COLDWATER      CLOUDY    12   6  76 W7        30.45S WCI   2
FREMONT        CLOUDY    10   3  72 CALM      30.46S
HOLLAND        CLOUDY    13   5  70 NE3       30.48F
GRAND RAPIDS   CLOUDY    13   1  59 N8        30.46F WCI   2
IONIA          CLOUDY    11   0  60 NW6       30.44F WCI   2
KALAMAZOO      CLOUDY    12   5  73 W6        30.46S WCI   3
LUDINGTON      CLOUDY    13   4  70 CALM      30.47S
MARSHALL       CLOUDY    11   2  67 NW7       30.45R WCI   1
MOUNT PLEASANT CLEAR     10  -1  62 W3        30.44F
MUSKEGON       FLURRIES  14   3  61 N5        30.48F WCI   6
SOUTH HAVEN    CLOUDY    15   5  63 N5        30.48S WCI   8
$$
MIZ016>042-140300-
NORTHERN LOWER MICHIGAN

CITY           SKY/WX    TMP DP  RH WIND       PRES   REMARKS
ALPENA         PTCLDY     1  -9  62 W3        30.43S
BEAVER ISLAND  MOCLDY    12   4  69 NW9G17    30.43S WCI   0
BELLAIRE       LGT SNOW   9   6  89 CALM      30.45S
CADILLAC       CLOUDY     5   0  81 W3        30.37S
CHARLEVOIX     CLOUDY    14   3  61 NW13G18   30.45S WCI   0
FRANKFORT      CLOUDY    15   3  59 CALM      30.45F
GAYLORD        MOCLDY    -3  -8  79 CALM      30.36S
GRAYLING       CLOUDY     0  -6  76 CALM      30.39S
HARBOR SPRINGS PTCLDY    -1  -5  83 W3        30.42S
HOUGHTON LAKE  LGT SNOW   7   3  84 W3        30.39S FOG
MANISTEE       CLOUDY    12   0  57 CALM      30.46F
OSCODA         CLEAR     -6 -13  71 CALM      30.44S
PELLSTON       PTCLDY    -6 -10  83 CALM      30.42S
ROGERS CITY    CLOUDY     4  -5  66 SW9       30.43S WCI -10
TRAVERSE CITY  FLURRIES  13   4  67 W8        30.43F WCI   2
$$
MIZ007>008-015-140300-
EASTERN UPPER MICHIGAN

CITY           SKY/WX    TMP DP  RH WIND       PRES   REMARKS
KINROSS        PTCLDY    -2  -4  92 E5        30.40S WCI -12
MACKINAC ISLAN CLOUDY     9   4  80 W13       30.40S WCI  -7
NEWBERRY       LGT SNOW   5   3  91 W6        30.39R WCI  -6
S. S. MARIE    PTCLDY     0  -9  65 CALM      30.41R
$$
MIZ004>006-011>014-085-140300-
CENTRAL UPPER MICHIGAN

CITY           SKY/WX    TMP DP  RH WIND       PRES   REMARKS
MANISTIQUE     CLEAR      4  -3  72 W6        30.43F WCI  -7
ESCANABA       CLEAR      0 -17  46 CALM      30.46S
MENOMINEE      CLEAR      3  -8  60 CALM      30.44F
SAWYER-GWINN   CLEAR     -6 -11  77 CALM      30.38F
$$
MIZ001>003-009>011-084-140300-
WESTERN UPPER MICHIGAN

CITY           SKY/WX    TMP DP  RH WIND       PRES   REMARKS
IRON MOUNTAIN  CLOUDY    -4 -12  68 CALM      30.38F
HOUGHTON       LGT SNOW   4   0  83 SW5       30.38F FOG     WCI  -5
COPPER HARBOR    N/A      7   2  80 SW6       30.41F WCI  -3
IRONWOOD       CLOUDY    -9 -11  92 CALM      30.36S
$$

ABBREVIATIONS USED IN REMARKS
   TC - TEMPERATURE IN CELSIUS
  WCI - WIND CHILL INDEX
   HX - HEAT INDEX
  VSB - VISIBILITY




USA.gov is the U.S. government's official web portal to all federal, state and local government web resources and services.